{"data":{"norad_id":69350,"intl_designator":"2026-122X","name":"STARLINK-37779","alt_names":[],"object_type":"PAYLOAD","status":"ACTIVE","operator":null,"country":"US","launch_date":"2026-06-03","launch_site_code":"AFWTR","launch_vehicle":null,"mission":null,"orbit_class":"UNKNOWN","rcs_meters":null,"size_class":null,"mass_kg":null,"dimensions":null,"purposes":["comms"],"wikipedia_slug":null,"has_3d_model":false,"image_url":null,"decayed_at":null,"tle_current":{"epoch":"2026-09-19T07:54:56.364192Z","epoch_age_seconds":130155,"freshness":"FRESH","line1":"1 69350U 26122X   26262.32981903  .00010617  00000+0  33064-3 0  9992","line2":"2 69350  97.2806 291.0226 0001683  97.8317 262.3117 15.33453233 16621","mean_motion":15.33453233,"eccentricity":0.0001683,"inclination_deg":97.2806,"raan_deg":291.0226,"arg_perigee_deg":97.8317,"mean_anomaly_deg":262.3117,"bstar":0.00033064,"rev_number":1662,"period_min":93.905700481183,"perigee_km":464.36689172136,"apogee_km":466.67046622291,"semimajor_km":6843.6556789721,"source":"CELESTRAK","updated_at":"2026-09-20T09:00:44.163368Z"}}}